Regional Weather Roundup
Issued by NWS San Angelo, TX

Home | Current Version | Previous Version | Text Only | Print | Product List | Glossary On
Versions: 1 2 3 4 5 6 7 8 9 10 11 12 13 14 15 16 17 18 19 20 21 22 23 24 25 26 27 28 29 30 31 32 33 34 35 36 37 38 39 40 41 42 43 44 45 46 47 48 49 50
000
ASUS44 KSJT 271910
RWRSJT
WEST CENTRAL TEXAS REGIONAL WEATHER ROUNDUP
NATIONAL WEATHER SERVICE SAN ANGELO TX
200 PM CDT MON MAR 27 2017

NOTE: "FAIR" INDICATES FEW OR NO CLOUDS BELOW 12,000 FEET WITH NO
SIGNIFICANT WEATHER AND/OR OBSTRUCTIONS TO VISIBILITY.

TXZ049-054-064>066-071>073-076>078-098-099-113-114-127-128-139-140-
154-155-168>170-272000
...LOCATIONS ACROSS WEST CENTRAL TEXAS...

CITY           SKY/WX    TMP DP  RH WIND       PRES   REMARKS
SAN ANGELO     FAIR      75  41  29 NW5       29.92F
ABILENE        FAIR      70  47  43 N8        29.94F
DYESS AFB      FAIR      70  46  42 E7        29.92F
JUNCTION       FAIR      81  45  28 CALM      29.90F
SWEETWATER       N/A     69  42  37 NE3       29.97F
BROWNWOOD      FAIR      73  46  38 N6        29.91F
COLEMAN        FAIR      73  45  36 N8        29.93F
SONORA         FAIR      81  36  19 VRB7      29.95F HAZE
OZONA            N/A     81  30  16 MISG      29.94F
BRADY          NOT AVBL
$$

TEXAS PANHANDLE/OKLAHOMA PANHANDLE

CITY           SKY/WX    TMP DP  RH WIND       PRES   REMARKS
AMARILLO       FAIR      64  36  35 VRB6      29.96F
BORGER         FAIR      64  37  36 MISG      29.95F
CANADIAN       FAIR      64  42  44 E3        29.94F
DALHART        SUNNY     64  36  35 SE8       29.96F
DUMAS          FAIR      62  37  40 E7        29.96F
GUYMON         NOT AVBL
HEREFORD       FAIR      67  36  31 SW5G18    29.97F
PAMPA          FAIR      65  40  39 E8        29.96F
PERRYTON       FAIR      65  35  32 NE5       29.94F
$$

SOUTHERN PANHANDLE/SOUTH PLAINS/ROLLING PLAINS

CITY           SKY/WX    TMP DP  RH WIND       PRES   REMARKS
LUBBOCK        FAIR      67  38  34 S8        29.97F
SNYDER         FAIR      66  43  42 N3        29.96F
CHILDRESS      FAIR      64  41  42 CALM      29.97F
SEMINOLE       FAIR      66  37  34 CALM      29.98F
$$

PERMIAN BASIN

CITY           SKY/WX    TMP DP  RH WIND       PRES   REMARKS
MIDLAND        FAIR      70  35  27 VRB3      29.96F
ODESSA         FAIR      70  36  28 VRB3      29.96F
WINK           FAIR      71  35  26 NW6       29.94F
$$

FAR WEST/SOUTHWEST MOUNTAINS/TRANS PECOS

CITY           SKY/WX    TMP DP  RH WIND       PRES   REMARKS
ALPINE         FAIR      77  23  13 W16       30.04F
DRYDEN           N/A     86  30  13 CALM      29.88F
EL PASO        SUNNY     75  16  10 SW12G22   29.94F
FORT STOCKTON  FAIR      77  28  16 VRB5      29.95F
GUADALUPE PASS SUNNY     71  22  15 SW18G26   30.02F
MARFA          FAIR      73  24  16 VRB6      30.03F
PECOS          FAIR      68  35  29 CALM      29.95F
$$

DALLAS/FORT WORTH METROPLEX

CITY           SKY/WX    TMP DP  RH WIND       PRES   REMARKS
DFW AIRPORT    FAIR      68  54  60 NW10      29.91F
FTW MEACHAM    FAIR      69  52  54 N6        29.91F
DAL-EXECUTIVE  FAIR      69  54  58 N9        29.90F
GRAND PRAIRIE  SUNNY     66  52  59 NW5       29.93F
ADDISON        CLOUDY    63  52  67 N8        29.93F
MESQUITE       CLEAR     68  54  60 N10       29.92F
LANCASTER      FAIR      68  55  62 NW8       29.92F
$$

NORTH CENTRAL TEXAS

CITY           SKY/WX    TMP DP  RH WIND       PRES   REMARKS
SHRMAN/DENISON FAIR      66  55  66 N7        29.93F
GAINESVILLE    FAIR      66  51  57 NE7       29.94F
BRIDGEPORT     FAIR      67  52  58 NW5       29.95F
DENTON         PTSUNNY   65  55  70 W3        29.92F
WAXAHACHIE     FAIR      70  55  58 W6        29.92F
GRANBURY       FAIR      70  52  52 N6        29.93F
$$

WESTERN NORTH TEXAS

CITY           SKY/WX    TMP DP  RH WIND       PRES   REMARKS
WICHITA FALLS  FAIR      67  48  50 CALM      29.94F
VERNON         FAIR      67  40  36 N7        29.95F
BRECKENRIDGE   FAIR      72  46  40 N6        29.93F
COMANCHE       FAIR      73  50  44 N8        29.92F
$$

CENTRAL AND SOUTH CENTRAL TEXAS

CITY           SKY/WX    TMP DP  RH WIND       PRES   REMARKS
AUSTIN/BERGSTM PTSUNNY   82  66  58 VRB5      29.87F
WACO           FAIR      74  60  61 N7        29.90F
HILLSBORO      FAIR      72  59  64 NW6       29.91F
TEMPLE         FAIR      76  66  71 VRB5      29.90F
KILLEEN-GRAY   FAIR      75  59  57 CALM      29.88F
FORT HOOD      FAIR      74  61  63 NW3       29.86F
GEORGETOWN     PTSUNNY   81  64  57 NE6       29.87F
LAGO VISTA     FAIR      81  64  55 SE6       29.89F
SAN MARCOS     PTSUNNY   81  66  61 S7        29.88F
NEW BRAUNFELS  CLOUDY    81  66  60 S9        29.86F
RANDOLPH AFB   PTSUNNY   79  68  69 SE10      29.88F
SAN ANTONIO    FAIR      78  66  66 SE14      29.88F
STINSON        CLOUDY    78  66  66 SE9       29.86F
PLEASANTON     NOT AVBL
LA GRANGE      CLOUDY    80  69  70 SW6       29.86F
GIDDINGS       CLOUDY    77  65  67 S5        29.89F
$$

EAST TEXAS

CITY           SKY/WX    TMP DP  RH WIND       PRES   REMARKS
PARIS          CLOUDY    63  54  72 N8        29.92S
CLARKSVILLE    NOT AVBL
TYLER          CLOUDY    77  64  64 W9        29.88F
LONGVIEW       CLOUDY    76  68  76 SW7       29.88F
PALESTINE      CLOUDY    76  68  77 S6        29.90F
NACOGDOCHES    PTSUNNY   75  64  69 S10       29.88F
$$

TEXAS HILL COUNTRY AND EDWARDS PLATEAU

CITY           SKY/WX    TMP DP  RH WIND       PRES   REMARKS
LLANO          FAIR      79  50  36 W3        29.92F
HORSESHOE BAY  FAIR      80  62  54 N3        29.89F
KERRVILLE      FAIR      83  60  46 CALM      29.89F
FREDERICKSBRG  FAIR      80  54  39 CALM      29.89F
ROCKSPRINGS    FAIR      81  50  34 CALM      29.93F
HONDO          FAIR      83  65  54 SE7       29.87F
UVALDE         FAIR      81  65  58 CALM      29.87F
DEL RIO        FAIR      82  61  48 CALM      29.85F
$$

SOUTHEAST TEXAS

CITY           SKY/WX    TMP DP  RH WIND       PRES   REMARKS
COLLEGE STN    CLOUDY    77  67  71 S3        29.89F
CALDWELL       NOT AVBL
CROCKETT       FAIR      75  66  73 SW8       29.92F
BRENHAM        CLOUDY    80  67  65 W3        29.89F
HUNTSVILLE     CLOUDY    79  65  62 W5        29.90F
CONROE         CLOUDY    80  65  59 SW7       29.89F
HOUSTON BUSH   PTSUNNY   83  66  56 S6        29.88F
HOUSTON HOBBY  PTSUNNY   83  66  56 S9        29.88F
PERLAND        PTSUNNY   83  67  58 S15       29.90F
WHARTON        FAIR      84  63  48 S15       29.88F
$$

THE UPPER TEXAS COAST

CITY           SKY/WX    TMP DP  RH WIND       PRES   REMARKS
ORANGE         CLOUDY    77  70  78 S14G21    29.95F
PORT ARTHUR    CLOUDY    77  68  73 SW7G22    29.92F
GALVESTON      CLOUDY    79  73  82 S10       29.92F
ANGLETON       PTSUNNY   82  69  64 S17G24    29.90F
BAY CITY       MOCLDY    82  69  66 S14       29.89F
$$

TEXAS COASTAL BEND, RIO GRANDE PLAINS DEEP SOUTH TEXAS

CITY           SKY/WX    TMP DP  RH WIND       PRES   REMARKS
VICTORIA       PTSUNNY   83  68  60 S13       29.87F
BEEVILLE       CLOUDY    85  69  59 SE9       29.86F
ROCKPORT       FAIR      81  70  69 SE16      29.87F
PORT ARANSAS   CLOUDY    77  71  83 E9        29.88F
PORT LAVACA    FAIR      83  71  67 S13G18    29.88F
CORPUS CHRISTI PTSUNNY   82  71  69 SE14      29.85F
KINGSVILLE NAS PTSUNNY   84  71  65 S6        29.83F
COTULLA        CLOUDY    77  66  68 SE8       29.87F
LAREDO         CLOUDY    77  67  71 NE5       29.86F
BROWNSVILLE    PTSUNNY   86  70  58 S18G24    29.83F
PORT ISABEL    PTSUNNY   87  70  56 S17G25    29.81F
HEBBRONVILLE   CLOUDY    81  65  59 SW3       29.85F
MCALLEN        FAIR      90  69  50 S8G18     29.81F
WESLACO        PTSUNNY   88  68  52 SE12      29.80F
FALFURRIAS     MOCLDY    85  67  54 S7        29.83F
EDINBURG       MOCLDY    89  67  49 SE8       29.81F
$$



USA.gov is the U.S. government's official web portal to all federal, state and local government web resources and services.